Theta_e
310 311 311 311 311 311 310 311 311 311 312 312 312 312 312 312 311 311 311 312 312 312 312 310 310 311 311 311 311 311 312 314 314 314 315 314 313 313 313 313 313 313 313 314 314 314 314 315 316 315 316 316 316 316 316 316 316 321 330 332 321 318 318 317 319 316 317 320 314 313 314 314 315 314 314 314 314 314 314 314 314 314 314 314 314 314 313 313
310 311 311 310 310 310 310 310 311 311 312 312 312 312 312 312 311 310 311 312 312 311 311 310 310 311 311 311 311 311 313 314 314 314 314 313 313 313 313 313 313 313 313 314 313 314 314 314 315 315 315 315 315 315 316 317 315 320 331 329 322 322 317 313 315 312 313 317 313 313 314 314 316 315 314 315 314 313 314 314 313 313 314 314 314 314 313 313
310 310 310 310 310 310 310 310 311 312 312 312 312 312 312 311 311 311 312 311 311 310 309 309 310 311 311 312 311 312 314 314 313 313 314 313 313 313 313 313 313 313 313 314 313 313 314 314 315 315 316 316 316 316 315 317 315 315 325 330 322 319 315 312 313 312 314 315 313 313 313 314 315 314 314 314 314 312 314 315 313 313 314 314 313 313 313 313
310 310 310 310 310 310 311 311 312 312 312 312 311 311 311 311 311 311 311 310 310 309 309 310 310 311 311 312 311 311 313 314 313 313 313 313 313 313 313 314 313 313 313 313 313 314 314 315 316 315 316 316 314 316 315 315 315 313 320 326 317 312 314 314 314 314 314 314 314 313 313 314 314 314 314 313 314 314 313 314 315 315 314 314 313 313 312 313
310 310 310 310 310 310 311 311 312 312 311 311 311 311 310 311 311 310 310 309 309 309 309 310 310 311 311 312 312 311 312 315 314 313 313 313 313 313 313 313 313 314 313 313 314 314 315 315 316 315 315 315 315 317 315 314 315 314 315 316 312 311 314 315 313 315 314 314 314 313 314 314 314 314 313 313 316 317 314 314 315 314 315 314 313 313 312 312
310 310 310 311 311 311 311 311 311 311 311 311 310 310 310 310 309 309 308 308 308 308 309 310 310 311 311 312 312 311 311 314 315 313 313 313 313 314 313 314 314 314 313 314 314 314 315 315 315 316 315 315 315 316 316 314 315 318 315 311 312 312 314 315 313 315 314 315 314 313 314 314 314 314 314 313 314 315 314 315 315 314 314 314 313 313 313 312
311 311 311 311 311 311 311 310 310 310 310 310 309 309 309 308 307 308 308 308 308 309 309 310 310 311 311 312 312 312 311 312 314 313 313 313 313 314 314 314 314 314 314 314 314 315 315 315 315 315 315 315 314 314 315 315 315 319 318 313 313 313 314 315 314 314 314 314 314 314 314 313 314 315 314 313 314 314 314 315 315 314 314 314 313 312 312 312
310 310 310 310 310 309 309 309 309 308 308 307 307 307 307 307 307 307 308 308 308 309 309 310 311 311 312 312 312 314 313 313 314 313 313 312 313 314 313 314 314 314 315 314 314 315 315 316 316 315 315 315 315 314 314 315 315 318 317 314 314 315 315 315 314 315 314 314 314 314 314 314 314 314 313 313 314 314 314 315 314 314 314 314 313 312 312 312
308 309 308 308 308 307 307 307 307 306 306 306 306 306 307 307 307 307 307 308 309 309 309 310 310 311 312 312 312 313 314 313 314 314 313 312 313 313 313 314 314 315 315 315 314 314 315 315 316 316 315 314 315 314 313 316 316 315 315 314 314 314 315 315 315 315 314 314 314 314 314 313 313 313 314 314 314 314 314 314 314 314 314 314 313 312 312 311
307 306 306 306 306 306 306 306 306 306 306 306 307 307 307 307 307 308 308 308 309 309 310 310 311 311 311 312 312 313 314 315 314 314 313 313 313 313 314 313 314 315 315 315 315 315 315 315 316 316 316 315 315 314 313 316 316 314 314 314 314 314 314 315 315 315 314 314 314 315 315 314 312 313 316 314 314 314 314 313 313 314 313 313 313 312 312 311
306 306 306 306 306 306 306 307 307 307 307 307 307 307 307 308 308 308 309 309 309 309 310 310 310 311 311 311 312 312 315 316 314 314 313 313 313 313 313 313 313 315 315 315 315 315 315 315 316 316 317 316 314 314 313 314 314 314 314 315 315 313 314 314 313 313 314 314 314 315 314 312 311 313 316 314 314 314 313 314 312 312 312 312 312 312 312 311
306 306 306 307 307 307 307 307 307 307 307 307 308 308 308 308 308 309 309 309 309 309 310 310 310 311 311 311 312 313 315 316 314 314 313 312 313 313 312 312 314 314 315 316 315 316 316 317 317 316 317 315 315 315 314 314 314 314 314 317 319 319 318 313 312 313 313 314 314 314 315 316 315 314 315 314 314 314 312 313 312 312 312 311 312 311 311 311
307 307 307 307 307 307 307 308 308 308 308 308 308 308 308 308 309 309 309 309 309 310 310 310 310 310 311 310 312 312 313 316 315 314 313 312 313 313 312 312 313 314 315 316 316 316 316 317 316 317 316 315 316 314 315 313 313 316 313 315 322 325 323 313 311 312 312 314 313 313 318 325 324 314 313 314 313 313 312 312 312 312 311 311 311 311 311 311
309 309 309 309 309 309 309 309 309 309 309 309 309 309 310 310 310 310 310 310 310 310 310 310 310 310 310 311 312 311 312 315 315 314 313 313 313 313 311 312 313 314 314 315 316 316 316 317 316 317 315 315 315 314 318 317 316 319 312 319 325 320 325 319 310 312 313 314 312 314 319 325 327 316 312 314 313 313 312 312 311 311 312 311 311 310 311 311
310 311 311 311 311 311 311 311 311 311 311 311 311 311 311 311 311 311 311 311 310 310 310 310 310 310 310 310 311 311 311 313 314 314 313 313 314 313 312 312 313 313 314 315 316 316 316 316 316 316 314 315 315 316 325 323 324 325 314 325 328 317 330 328 309 310 316 313 311 315 321 322 322 315 312 313 312 313 312 312 312 311 311 311 311 311 310 311
311 312 311 311 311 311 311 311 311 311 310 310 310 310 310 310 310 310 310 310 310 310 310 309 309 310 310 310 311 312 311 311 314 315 314 314 314 312 312 312 312 314 314 315 316 316 316 316 315 315 313 315 319 327 334 326 328 331 319 323 329 320 327 327 312 310 313 313 312 313 319 323 320 312 311 312 311 312 311 311 311 311 311 311 311 311 310 311
312 311 311 311 311 311 311 310 310 309 308 309 309 309 309 309 309 309 310 310 310 309 309 310 310 310 311 312 313 314 312 311 312 314 315 315 313 313 313 312 313 313 314 315 315 315 315 315 315 315 315 314 318 328 330 323 326 329 319 320 327 323 321 324 321 313 309 313 314 313 315 320 318 310 310 312 311 311 310 311 312 311 311 311 311 311 310 311
311 312 311 311 311 310 310 309 308 308 308 308 308 308 308 308 309 309 309 309 309 309 309 311 312 311 312 312 313 314 314 313 312 313 314 314 313 313 313 313 313 314 315 314 314 315 314 314 316 319 319 316 319 324 324 325 330 328 323 323 324 321 318 322 325 316 311 314 315 315 315 317 316 312 310 312 311 310 310 311 311 311 311 311 310 310 310 310
311 311 311 311 310 310 309 308 308 308 308 308 308 308 308 308 308 308 309 308 309 311 311 312 312 313 314 312 312 313 314 314 312 313 314 314 313 313 313 313 314 314 314 315 314 314 314 315 318 320 321 319 319 321 323 328 331 329 330 332 328 324 322 324 325 317 312 314 316 316 316 315 316 314 311 311 311 310 310 311 310 310 310 310 310 310 310 310
311 311 311 311 310 310 309 308 308 308 307 308 308 308 308 308 309 309 309 308 309 311 312 313 312 312 314 313 312 313 314 314 313 313 313 314 313 313 314 313 314 314 314 318 317 313 315 319 321 323 324 323 320 319 320 323 324 324 328 329 326 324 324 325 324 317 310 314 321 318 315 315 315 315 311 309 310 308 308 308 308 309 310 310 311 311 311 310
311 311 310 310 310 310 310 308 308 308 307 308 307 308 308 308 310 311 309 309 309 309 310 312 312 311 312 313 312 313 314 314 314 314 313 314 314 313 314 314 315 316 314 315 315 313 316 321 323 325 322 319 319 317 317 319 319 320 322 322 322 323 323 321 320 317 311 314 322 320 316 316 314 314 311 308 309 308 308 308 308 310 309 310 311 310 311 310
311 311 310 310 310 310 310 309 309 308 307 308 307 308 308 308 310 312 311 311 310 310 309 310 311 312 312 312 313 313 314 315 315 315 314 314 314 314 314 314 317 319 315 312 316 317 318 321 322 319 313 314 318 315 314 316 316 318 320 319 321 322 321 321 320 317 312 314 322 323 318 316 316 314 311 309 309 310 310 310 311 311 310 310 311 310 311 310
310 310 310 310 310 310 310 310 309 309 308 308 307 307 308 308 310 311 312 313 313 312 310 310 310 310 312 312 313 314 314 315 315 315 314 314 314 314 313 314 317 319 317 316 321 320 320 324 320 312 311 316 319 315 315 316 316 319 320 320 323 322 320 324 322 317 316 315 318 321 317 316 316 315 314 311 310 311 312 312 311 311 311 311 311 311 311 310
308 308 309 309 309 309 309 309 309 309 308 308 308 307 308 309 309 310 311 312 313 313 311 311 311 309 311 312 312 314 314 314 315 314 315 314 313 313 313 314 317 319 317 317 319 319 321 320 313 310 313 319 320 318 318 319 320 321 320 320 322 322 321 323 322 321 323 320 317 320 321 322 321 319 320 315 310 311 311 312 312 311 311 311 311 310 311 310
309 308 308 307 308 308 308 308 308 308 308 308 308 307 307 309 310 311 310 311 312 313 311 311 312 311 310 310 312 314 314 314 314 314 314 314 314 314 313 313 315 318 318 316 316 317 319 314 311 316 316 317 320 321 321 322 322 323 322 320 320 322 322 320 321 321 325 327 320 317 324 332 330 327 327 323 319 319 313 308 310 312 310 309 309 309 309 309
314 312 310 308 307 307 307 307 308 307 307 308 307 307 307 308 311 311 311 314 313 312 312 312 313 313 311 311 313 313 314 314 314 314 315 314 314 313 314 313 313 316 316 315 315 316 317 312 315 324 321 319 320 320 323 321 319 322 323 321 318 319 320 320 321 321 326 328 318 315 324 330 327 326 328 328 330 329 318 309 309 310 310 309 309 309 309 309
319 316 314 312 309 308 307 307 308 307 307 308 307 307 308 309 312 310 311 315 313 312 315 314 312 313 312 312 313 312 314 315 313 314 314 314 314 313 316 315 313 313 312 313 315 315 316 315 316 323 323 322 320 321 322 318 320 325 321 319 318 317 319 322 322 321 324 325 320 320 324 324 323 325 326 324 324 325 322 318 312 308 309 309 309 309 309 309
321 319 317 315 312 310 308 308 309 307 307 309 307 308 310 311 312 311 311 313 311 312 316 313 311 313 313 312 313 312 313 314 314 315 314 314 314 313 315 315 315 315 312 313 317 314 315 319 318 319 321 321 322 325 322 317 321 323 316 317 319 319 323 325 325 324 322 321 323 322 321 323 327 327 324 319 321 324 325 323 316 309 309 309 308 309 308 309
321 321 320 318 315 312 309 309 310 308 308 309 307 309 312 311 311 311 312 311 311 314 314 313 313 312 313 313 312 312 312 313 314 315 313 313 314 314 315 313 312 314 312 312 317 316 314 317 315 316 320 320 323 323 318 318 320 315 312 317 319 320 323 325 327 327 325 323 325 324 321 323 326 326 324 320 323 327 324 322 315 309 310 310 308 309 308 308
320 321 321 319 317 314 311 312 312 309 309 309 308 310 312 311 311 309 310 311 313 316 312 312 314 312 313 313 312 312 312 312 313 313 313 313 313 313 314 313 312 316 317 314 317 318 314 312 312 315 317 316 319 316 311 315 315 312 318 324 324 325 325 325 326 324 325 325 325 325 323 322 325 327 326 322 323 325 323 326 321 309 308 310 309 309 308 308
320 320 320 319 320 318 314 314 314 311 310 309 311 312 312 313 314 310 309 310 312 315 312 313 315 312 313 314 313 313 313 312 312 313 314 314 314 314 314 314 314 318 320 317 319 318 315 315 314 314 313 312 316 317 311 310 310 315 328 330 326 328 325 325 325 323 326 327 322 320 319 319 323 328 328 324 322 321 320 325 326 314 309 310 309 308 308 308
322 321 321 320 321 320 318 317 315 311 310 310 312 313 311 313 314 312 312 311 312 317 316 316 315 313 313 314 314 315 315 315 312 313 316 315 315 315 314 316 317 318 319 317 318 318 318 320 317 313 312 313 320 323 316 313 313 320 328 326 323 326 325 326 326 323 324 322 316 315 317 318 320 323 324 324 324 322 315 314 317 313 310 311 311 309 308 308
322 322 321 321 321 321 320 318 314 311 310 312 313 313 312 313 313 312 312 312 314 316 316 318 316 314 314 314 315 314 315 316 314 313 315 315 316 315 315 317 317 318 321 317 316 319 321 321 317 315 315 315 319 322 320 319 318 320 323 324 325 325 326 331 329 322 322 320 314 312 317 320 320 321 321 320 320 317 312 309 311 311 310 311 311 310 309 307
322 322 322 321 321 321 321 319 314 311 311 312 314 315 314 313 313 313 312 311 316 317 317 318 315 313 313 316 317 314 314 316 314 314 315 315 317 316 316 317 315 319 324 318 317 319 319 319 319 318 317 317 317 317 321 322 318 318 321 321 323 325 329 332 330 327 326 324 316 312 318 325 326 324 319 313 310 311 311 310 310 309 310 310 309 309 309 307
321 322 322 321 320 320 321 319 314 312 311 312 314 315 313 312 313 314 312 312 319 321 318 316 315 314 315 318 318 314 314 316 314 315 316 316 317 316 315 316 314 318 322 317 318 319 317 321 322 316 313 316 317 315 318 320 318 318 319 320 322 324 326 324 321 321 321 322 320 316 320 324 323 321 316 309 308 309 308 308 308 308 308 307 308 308 308 308
320 322 322 321 320 319 321 318 313 312 312 312 314 314 312 313 315 316 314 315 321 321 317 317 318 318 316 317 318 314 314 317 316 316 317 316 317 316 315 315 313 314 315 315 320 321 319 321 318 313 313 314 313 313 314 317 320 318 317 320 320 317 321 323 317 313 314 320 322 319 321 323 320 320 317 314 315 314 310 307 306 306 306 306 307 307 308 308
319 320 319 320 321 320 320 317 313 314 314 312 314 314 313 314 315 316 316 315 317 318 318 318 318 319 317 317 319 316 315 318 316 316 317 316 317 317 315 316 314 313 313 315 320 322 321 322 317 314 317 312 308 311 311 310 315 320 321 320 316 314 320 324 322 320 320 323 323 320 321 322 321 322 319 314 315 319 318 312 305 303 304 305 306 307 307 308
318 318 317 318 320 320 319 316 314 315 314 312 313 314 314 314 313 314 315 314 315 317 319 318 316 318 319 318 318 317 316 318 316 316 317 316 317 317 315 316 315 313 312 314 317 320 320 321 318 313 315 312 309 313 316 311 310 317 320 317 318 323 324 321 322 326 326 325 326 322 318 318 319 321 321 317 318 323 320 315 311 307 303 302 305 306 306 306
318 317 316 317 318 319 319 316 314 315 314 312 313 314 314 314 313 313 315 315 316 317 317 317 317 318 319 318 318 317 316 317 316 315 318 317 317 317 314 315 316 313 311 312 316 320 319 318 320 312 310 313 313 316 320 317 311 312 314 313 317 323 322 320 321 323 325 325 326 324 321 320 319 320 323 320 322 327 324 320 319 310 303 303 306 306 306 306
316 316 316 317 318 318 318 315 314 315 314 312 312 313 313 314 312 312 313 315 316 316 315 317 320 320 319 317 317 317 316 317 315 315 317 317 317 317 313 315 318 314 312 312 314 320 319 317 320 315 309 313 318 318 318 319 315 315 316 316 317 317 317 320 319 319 323 326 327 325 322 323 323 321 322 320 320 325 325 323 319 308 304 306 306 307 308 308
315 315 315 317 317 318 317 314 314 316 314 311 311 312 312 313 313 312 312 313 315 316 315 317 320 320 319 317 317 318 317 316 316 315 317 316 316 318 315 314 317 316 313 313 315 318 318 318 322 320 314 316 320 317 313 315 316 316 317 317 317 316 317 321 320 318 319 321 325 325 322 324 325 319 318 320 320 318 315 313 312 308 306 307 306 308 309 309
313 313 315 316 316 317 315 314 314 315 314 311 310 311 312 313 314 313 312 312 314 315 316 318 319 318 318 317 317 318 317 317 315 315 317 316 315 318 316 313 314 314 314 316 316 315 316 320 324 322 317 316 317 311 305 309 314 314 315 318 318 316 317 322 322 320 318 318 319 320 321 322 319 314 314 315 313 310 307 307 307 308 308 307 307 307 308 308
311 312 313 315 315 316 315 314 314 313 313 312 311 312 312 313 314 314 313 313 313 315 316 319 319 316 316 318 318 317 317 317 316 315 317 317 315 315 314 312 313 313 314 317 317 314 316 320 321 321 319 317 316 311 306 307 312 313 316 319 318 316 316 320 321 319 320 320 318 319 322 319 315 313 308 305 305 305 306 307 307 308 309 308 307 307 307 308
312 311 312 314 315 316 315 314 313 311 311 311 312 312 312 313 313 314 315 313 313 315 316 318 318 316 317 320 319 317 317 318 317 316 316 318 317 313 312 312 313 313 314 317 317 315 317 320 321 321 322 320 319 317 313 311 312 316 318 317 315 316 316 317 318 317 319 321 319 320 322 319 320 320 310 306 310 310 306 307 308 309 309 308 307 306 307 307
312 311 312 313 314 315 315 314 313 311 311 311 312 312 312 313 313 313 315 314 313 315 316 317 317 316 317 319 318 317 317 317 318 317 316 318 317 311 310 312 313 313 314 315 314 314 318 321 319 319 321 321 320 321 319 316 313 315 318 316 314 316 317 317 318 318 319 320 319 320 320 319 322 322 317 316 319 316 311 309 309 310 310 309 307 306 306 307
311 311 312 312 314 314 314 314 313 311 310 311 311 311 312 313 313 313 314 315 314 314 316 317 317 317 319 319 318 319 318 317 318 318 317 319 319 313 310 311 312 312 313 313 313 316 322 322 318 318 320 319 319 321 321 318 316 316 317 316 315 315 315 316 318 318 320 319 318 319 319 319 320 319 320 321 322 324 320 311 308 310 310 309 308 307 306 307
310 311 312 313 313 314 314 314 314 312 311 311 311 311 311 312 313 313 313 314 315 314 315 317 317 318 320 320 319 320 319 317 318 318 317 318 318 313 309 309 311 312 313 313 313 318 323 322 319 320 320 317 320 323 319 318 318 317 317 316 315 314 314 316 317 318 321 321 320 319 319 319 319 318 320 322 323 325 319 308 308 312 312 311 310 307 305 306
311 311 311 312 313 313 314 314 314 313 312 311 311 311 311 311 312 313 313 313 314 315 316 317 318 318 319 319 320 320 320 319 318 317 317 318 318 315 312 311 310 310 311 312 313 317 322 321 319 321 320 317 321 322 318 318 318 317 317 316 315 314 314 315 316 317 319 320 320 321 322 321 318 317 319 318 317 318 315 311 312 313 312 311 309 307 306 305
311 311 310 311 312 312 313 314 314 314 313 312 311 311 311 311 312 313 313 314 314 315 316 317 317 317 318 318 319 320 320 320 320 318 317 318 319 318 317 316 313 309 310 313 312 312 317 321 319 320 320 318 320 320 317 317 317 316 316 316 315 314 314 315 315 316 317 318 318 320 322 321 318 318 319 316 314 313 312 312 313 312 311 311 309 307 307 306
309 310 310 310 311 309 310 312 312 313 314 313 312 312 311 311 312 312 313 314 314 314 315 317 317 316 317 317 318 319 319 319 320 320 318 317 317 317 318 319 317 311 310 314 313 309 313 320 319 318 320 319 319 319 316 316 317 317 317 316 314 314 314 314 315 315 316 317 317 318 319 318 316 317 317 314 312 312 311 310 310 311 311 309 308 308 308 307
307 308 308 309 310 309 309 310 311 312 312 312 312 313 312 312 312 312 312 313 314 314 315 316 316 316 316 316 317 318 318 318 319 318 317 316 315 315 314 314 315 314 311 313 313 311 313 318 317 318 320 320 319 319 316 314 315 317 317 316 314 313 313 313 314 315 315 316 317 316 317 317 316 316 316 312 310 309 307 307 309 311 311 309 309 309 309 309
306 306 306 307 308 309 309 310 311 311 311 311 312 312 312 312 312 312 312 313 312 313 314 315 315 316 316 316 317 317 316 317 317 316 315 315 314 312 310 310 313 315 313 312 313 313 314 316 317 318 319 320 319 317 315 314 315 317 318 317 315 312 313 313 313 314 314 315 317 317 317 316 316 317 317 315 312 309 306 308 311 311 310 309 310 311 312 312
Wind_Speed
21 20 19 18 17 16 15 14 13 13 12 11 11 10 10 10 11 11 12 12 12 12 11 10 10 9 7 5 3 1 1 1 2 3 5 6 7 8 8 7 5 3 2 2 1 1 2 3 3 4 4 5 6 5 6 6 5 3 3 4 3 3 3 5 7 7 4 4 6 8 9 7 4 6 7 4 4 6 5 6 6 6 7 9 11 12 14 13
21 20 19 18 17 16 15 15 14 14 13 12 12 11 11 11 12 12 13 12 12 12 11 11 10 9 6 4 3 1 1 0 2 5 8 9 10 9 7 5 2 1 2 1 0 1 2 3 3 4 5 6 7 5 4 5 6 4 3 4 3 5 3 3 7 9 4 4 8 7 8 9 7 8 9 4 3 6 4 5 6 7 9 10 11 14 14 14
21 20 19 18 17 17 16 16 15 14 14 13 13 12 12 12 12 13 13 12 12 11 11 11 10 8 6 4 2 2 2 2 5 9 11 10 9 8 5 3 2 3 3 1 1 1 3 3 3 4 6 7 7 6 5 6 5 2 4 3 4 6 3 2 6 10 6 7 10 7 7 9 8 9 7 5 5 5 6 8 8 9 13 13 13 15 15 14
21 20 19 18 18 17 17 16 16 15 14 14 14 13 13 13 13 13 13 12 12 11 12 12 10 9 6 5 3 2 3 3 7 10 10 9 7 6 3 3 3 3 2 1 1 2 4 4 4 4 7 6 6 6 6 7 4 2 3 3 5 6 3 2 6 8 8 9 11 8 7 6 8 9 7 7 5 4 11 14 13 11 13 14 15 15 14 14
20 20 19 18 18 17 17 16 16 16 15 15 15 14 14 14 13 13 13 12 12 12 13 12 10 9 6 5 3 4 5 2 6 10 9 8 5 4 2 0 0 0 1 1 2 3 4 4 5 5 6 4 6 5 4 7 5 3 2 1 7 7 3 5 7 8 10 10 9 8 7 6 9 7 8 10 7 5 10 13 15 13 11 13 15 14 14 14
20 19 19 18 18 17 17 16 16 16 16 15 15 14 14 14 13 13 13 12 12 12 13 12 10 9 7 6 3 5 5 1 8 12 8 6 5 3 3 2 2 2 2 2 2 3 3 3 5 5 5 4 4 4 3 6 3 3 2 0 7 6 2 8 10 9 10 8 9 9 6 7 9 5 7 13 12 10 10 10 12 14 11 12 14 14 14 14
19 19 18 18 17 17 16 16 16 15 15 15 15 14 14 14 13 13 13 12 13 13 12 11 10 9 7 6 4 5 6 3 9 13 7 5 5 4 3 2 3 3 2 2 2 4 4 3 6 7 5 3 2 2 4 6 4 5 1 1 5 4 3 9 11 9 9 8 9 8 7 8 9 5 6 12 15 14 13 11 10 12 12 13 14 14 14 14
19 18 18 17 16 15 15 15 15 14 14 15 14 14 14 14 13 13 13 13 13 13 12 11 10 9 7 6 4 4 6 5 11 14 7 5 5 4 3 2 3 3 2 2 3 4 4 5 8 7 4 3 2 1 3 4 5 5 2 3 3 3 4 9 9 8 8 7 8 8 7 8 8 6 5 10 13 13 13 10 10 12 13 14 14 14 15 16
19 18 17 17 16 15 15 15 14 14 14 14 14 14 13 13 13 13 13 13 13 12 12 11 10 9 7 6 4 3 5 7 12 14 9 6 6 5 3 3 3 3 2 2 3 3 3 6 6 4 3 4 4 3 3 2 1 2 4 4 2 2 4 8 9 9 9 7 8 7 6 6 7 5 7 11 11 11 12 12 12 13 14 14 14 14 15 16
19 18 18 17 16 16 16 15 15 15 14 14 14 13 13 13 13 13 13 12 12 12 11 11 10 9 8 7 5 3 4 8 12 15 11 8 8 6 4 3 3 3 2 1 2 3 4 6 6 6 6 5 5 3 4 3 1 1 3 1 1 2 4 6 9 10 9 8 9 8 4 3 5 4 5 10 12 13 14 14 14 14 15 15 15 16 16 17
18 18 17 17 17 17 16 16 16 16 15 14 14 14 13 13 13 13 12 12 12 11 11 11 10 9 9 8 7 4 3 8 13 15 13 9 9 7 4 3 2 3 2 2 2 3 5 5 5 5 3 3 4 3 3 4 3 2 2 3 4 4 5 7 9 10 8 5 8 9 4 1 3 4 6 9 13 15 16 16 16 16 16 16 16 17 17 17
19 18 18 17 17 17 16 16 16 15 15 14 14 13 12 12 12 12 12 12 11 11 11 10 9 9 9 9 11 8 4 7 13 15 14 11 10 8 4 3 2 3 3 3 2 3 4 4 3 2 3 5 3 3 3 3 3 2 4 3 6 7 4 5 5 8 8 3 5 6 2 4 4 7 8 9 15 17 17 18 18 18 18 17 18 18 18 18
19 19 18 17 17 17 16 16 16 15 14 14 13 12 12 12 11 11 11 11 11 10 10 10 9 9 9 8 10 10 7 8 11 14 14 11 11 9 5 3 3 3 4 4 3 3 3 2 2 3 5 5 2 3 3 3 3 1 3 2 4 8 5 2 2 5 8 3 4 6 2 6 7 9 8 10 16 19 19 20 20 19 19 19 19 19 19 18
19 19 18 18 17 17 16 16 15 15 14 13 13 13 12 12 12 12 11 11 11 10 10 10 9 9 9 8 8 10 11 10 12 13 14 13 12 10 5 4 4 4 4 4 4 4 2 1 2 4 5 4 4 5 2 4 4 1 1 2 3 2 4 4 1 7 7 3 5 7 1 6 8 8 8 12 17 20 21 22 22 21 21 20 20 20 20 19
19 19 19 19 18 18 18 17 16 15 14 14 14 13 13 13 12 12 11 11 11 10 10 10 9 8 7 8 8 9 12 14 14 14 14 14 12 10 6 5 5 5 4 5 5 4 3 3 3 4 5 5 5 4 3 4 3 3 1 3 3 1 5 8 1 9 6 2 6 6 1 7 8 8 8 14 19 21 22 22 23 23 22 22 22 22 21 20
19 19 19 19 19 19 19 19 17 16 15 14 14 13 13 13 12 12 11 11 11 10 9 8 9 8 4 6 8 9 13 16 16 16 15 14 13 10 7 6 6 5 5 5 4 4 5 4 4 5 4 4 4 4 4 4 4 4 1 3 2 1 3 6 1 6 3 3 4 2 1 4 5 4 5 15 21 22 21 21 23 24 24 24 24 23 23 22
20 19 19 19 20 20 20 19 18 17 16 15 14 14 13 12 12 12 11 11 10 10 8 6 6 7 6 7 7 10 14 16 17 17 16 14 14 11 7 6 6 6 6 5 5 5 5 5 5 3 3 3 3 4 4 2 4 4 2 1 4 2 2 3 4 4 2 3 3 3 2 7 6 3 5 15 20 22 22 24 25 26 26 25 25 25 24 24
21 20 20 20 20 21 21 20 19 18 16 15 14 14 13 12 12 11 11 11 9 6 5 6 5 2 7 11 10 9 11 13 16 17 16 16 14 11 8 6 6 7 6 5 5 6 5 3 4 2 3 4 2 5 3 4 3 3 2 1 3 2 2 4 4 2 4 2 3 3 4 10 12 10 10 14 18 23 25 26 25 25 27 27 27 27 26 25
22 21 21 21 21 21 21 20 19 18 17 15 14 13 12 10 9 9 10 11 10 6 3 10 12 4 3 10 13 11 8 10 14 15 16 16 14 11 9 6 6 8 8 5 3 4 4 3 4 2 1 2 4 6 7 8 6 5 6 4 3 3 3 5 5 5 4 2 4 7 7 10 12 12 13 15 19 24 26 25 23 24 26 28 29 29 29 28
23 23 22 22 22 22 22 21 20 18 17 16 15 13 10 8 5 4 11 15 17 15 9 10 17 12 3 3 10 12 9 10 14 16 16 16 14 12 10 8 8 7 5 4 3 2 4 3 2 5 7 8 9 9 6 5 6 5 5 4 3 4 4 5 4 6 1 3 6 8 8 10 11 11 14 16 15 20 23 23 25 26 27 30 32 32 32 30
25 25 24 24 24 24 23 22 21 20 18 17 17 14 10 11 6 2 10 16 21 24 19 12 14 16 9 4 8 11 10 11 14 16 16 16 15 11 10 9 7 3 2 3 5 2 4 3 7 10 9 8 7 7 6 5 5 5 5 2 2 3 5 6 4 5 1 3 5 5 5 10 11 10 15 13 9 17 26 26 29 31 30 32 33 34 34 30
26 26 26 26 26 25 24 24 22 21 20 19 19 16 12 14 12 7 6 8 15 21 24 21 16 17 15 11 10 12 11 9 12 18 18 18 17 12 11 9 5 3 2 4 5 2 2 4 11 9 5 6 3 4 6 4 3 3 3 2 3 3 4 6 4 4 1 3 4 5 5 9 11 10 14 16 15 21 29 30 33 34 33 34 35 35 35 32
27 27 27 27 27 26 26 25 24 23 22 21 21 20 16 14 14 12 7 5 8 14 21 25 23 22 21 16 14 16 15 10 11 20 21 21 20 15 13 10 4 4 3 4 6 4 3 6 10 8 9 7 4 4 7 3 1 2 3 3 3 3 2 4 5 4 2 1 2 5 6 8 9 9 12 19 21 23 27 28 31 33 34 36 36 36 36 35
24 25 26 27 27 27 26 25 24 24 23 23 22 20 18 14 12 11 8 5 6 10 16 21 24 28 27 21 17 19 19 13 13 20 24 25 22 14 12 10 6 4 5 8 8 6 6 6 3 7 8 7 5 4 6 4 2 4 5 6 4 4 6 6 4 4 3 3 3 4 7 7 6 8 9 10 9 15 23 23 27 31 32 33 32 33 36 36
18 21 22 24 25 25 24 24 24 24 23 23 22 19 17 15 11 7 4 2 5 6 10 15 19 24 29 25 20 19 16 14 15 19 25 29 25 13 8 10 7 4 7 7 5 5 8 6 4 8 4 6 7 4 5 7 3 5 5 9 10 8 8 5 2 5 4 4 4 4 4 7 4 5 8 5 3 9 14 14 23 28 27 28 30 31 33 34
14 16 18 20 21 22 22 19 20 23 23 22 20 18 17 14 8 5 3 3 4 4 4 10 11 13 21 23 22 17 7 10 16 20 24 29 27 15 7 7 5 4 7 6 2 3 5 4 6 7 6 6 6 4 6 8 5 3 5 9 10 7 5 4 2 2 1 4 4 3 1 7 6 4 8 6 5 10 9 10 19 22 21 26 30 31 32 33
13 14 15 17 18 20 20 16 19 21 20 18 18 17 16 12 9 8 4 4 5 5 7 9 9 10 14 19 27 19 2 6 13 18 26 29 26 16 7 6 3 3 6 6 2 3 4 4 4 6 6 6 5 4 6 8 8 3 4 4 7 7 6 5 5 3 3 3 4 3 3 4 8 6 6 4 5 10 12 13 14 16 20 24 27 30 31 33
15 15 14 15 17 18 18 17 18 19 17 16 18 18 15 14 13 9 5 2 3 5 6 7 9 12 12 19 30 19 6 11 10 13 27 30 24 14 7 9 7 6 8 8 4 4 4 7 7 7 5 4 6 5 7 11 5 5 2 5 6 6 5 4 5 2 1 2 5 2 3 3 7 6 3 3 3 9 14 13 9 12 21 23 26 29 30 32
17 17 16 15 16 18 19 18 16 15 15 15 18 19 17 18 14 7 4 2 3 4 3 7 9 10 14 20 23 13 9 8 3 12 25 26 23 11 3 9 8 6 7 5 5 3 1 4 8 8 5 6 4 1 7 10 4 4 6 7 6 5 5 5 4 3 3 2 5 5 5 3 6 4 1 2 3 9 12 10 6 9 16 21 25 28 29 31
20 19 16 16 18 20 21 20 17 15 16 17 21 23 22 19 10 5 2 3 2 2 3 7 7 10 18 16 8 3 6 2 5 16 18 15 18 8 3 7 5 5 2 4 2 3 2 1 3 4 4 5 5 4 2 4 6 9 7 7 7 6 5 4 3 4 2 5 6 8 9 7 5 4 4 4 4 7 7 6 6 7 10 16 23 27 29 30
23 22 19 21 22 21 22 22 19 20 20 22 26 28 23 11 4 3 6 2 1 1 4 4 2 8 17 13 5 4 3 2 7 16 10 5 10 5 4 6 3 4 1 5 3 4 3 1 1 2 4 6 8 5 4 4 7 8 4 5 4 4 4 4 4 4 0 6 5 4 5 6 7 6 3 6 7 6 6 5 6 6 8 13 19 25 28 29
27 26 24 25 23 21 23 20 20 24 24 27 32 30 18 4 1 5 5 1 0 4 5 4 3 6 11 8 6 7 4 2 6 10 6 4 6 6 6 6 5 3 2 6 3 3 2 4 3 1 4 7 6 4 4 4 3 4 4 6 4 2 3 3 3 0 3 6 3 2 1 3 8 7 7 11 11 9 10 10 10 10 11 12 16 22 26 29
32 30 29 30 27 26 24 18 21 27 28 32 34 23 9 3 6 10 8 3 2 2 3 4 3 7 11 7 4 5 4 2 6 6 4 5 5 7 6 4 5 4 3 5 2 0 3 5 2 1 3 8 10 6 3 1 3 5 5 6 5 2 1 2 3 2 4 5 2 1 2 3 5 5 11 16 15 12 11 13 15 14 14 13 14 19 25 29
34 33 34 35 32 29 25 20 25 28 30 35 27 11 5 7 9 11 12 8 1 2 2 4 5 6 8 5 4 7 4 2 6 5 3 5 5 7 6 6 6 3 3 4 3 5 5 5 5 6 3 10 12 7 6 6 5 5 3 5 6 5 4 4 4 3 4 3 3 2 1 4 3 3 8 11 11 12 13 15 16 16 17 14 13 18 25 29
34 35 37 38 37 34 30 27 28 30 35 35 17 5 9 10 9 10 10 7 1 2 3 4 8 6 5 2 2 6 4 2 5 5 4 6 6 7 7 8 10 6 5 4 2 4 4 7 6 2 1 10 10 5 6 8 3 2 2 4 3 5 5 2 3 4 3 2 3 2 3 5 4 5 8 7 9 11 12 14 14 14 14 13 15 21 26 30
36 41 39 41 43 40 36 34 31 34 40 33 11 6 11 9 6 6 5 4 5 5 6 4 4 5 6 2 2 6 1 1 5 4 3 4 3 7 8 8 12 12 9 7 3 2 3 5 5 3 2 3 4 3 5 4 3 2 2 4 3 4 6 3 2 1 3 2 4 3 5 5 3 7 8 5 7 9 9 11 11 10 9 12 18 23 28 31
36 45 43 45 46 40 39 37 32 36 40 27 10 9 11 9 4 3 2 4 7 10 9 4 3 5 7 4 4 8 3 2 5 4 4 3 3 7 8 5 9 16 14 6 2 3 4 2 4 2 1 2 2 4 5 4 4 5 4 6 2 2 3 3 2 3 3 3 5 2 6 5 2 5 4 1 5 10 11 9 8 8 11 16 21 24 28 31
30 37 40 45 45 39 40 38 33 37 32 15 9 11 8 8 5 4 3 4 6 9 7 6 5 5 7 6 5 7 6 4 6 5 4 3 5 8 10 6 7 17 19 8 1 2 4 2 4 1 2 3 3 4 3 5 3 4 4 5 4 2 1 2 2 2 1 3 5 3 4 4 6 6 1 3 8 11 12 8 5 10 16 19 21 24 27 30
24 27 30 39 43 39 39 39 40 37 23 8 9 9 6 9 9 5 3 3 4 7 6 6 4 2 5 7 5 6 8 7 8 7 5 5 5 6 13 11 7 13 20 14 5 2 3 3 4 2 1 2 3 2 4 2 2 3 2 3 2 2 3 3 3 3 3 2 4 3 3 4 6 6 7 9 11 11 10 7 7 14 19 21 23 25 28 30
18 15 15 28 36 36 39 42 41 29 12 7 11 8 5 7 11 16 13 4 2 3 4 4 4 4 5 5 4 5 7 6 8 8 5 6 6 4 9 12 5 7 16 16 8 2 2 3 3 3 3 1 2 4 8 9 6 3 4 4 3 1 2 1 1 2 4 3 2 3 6 6 4 5 9 12 10 11 10 7 9 13 17 21 24 25 27 30
15 6 6 15 22 32 42 37 26 15 5 6 10 8 6 4 7 18 21 11 2 1 1 2 4 5 5 5 4 4 5 5 6 6 4 6 7 4 8 15 11 9 10 9 8 5 3 3 3 2 2 4 5 4 5 7 6 6 7 8 8 6 4 2 3 2 3 3 4 3 7 9 4 3 6 7 6 7 7 6 10 13 15 19 23 25 27 29
14 6 6 9 12 27 39 24 11 10 6 6 9 8 7 3 3 11 18 16 8 3 1 2 3 4 5 6 6 5 6 5 6 7 4 7 9 5 9 19 21 19 14 6 8 8 4 3 3 3 4 5 6 4 2 4 2 2 3 4 5 5 5 6 6 4 2 2 2 3 4 9 3 1 4 4 4 5 4 7 13 15 14 16 20 23 26 28
16 10 6 6 12 26 28 11 6 10 6 5 7 7 8 5 1 6 12 15 11 4 4 3 2 4 4 3 5 7 8 7 7 10 6 5 8 7 9 18 21 18 12 4 3 5 4 3 3 2 2 2 4 4 2 1 2 2 2 3 6 8 7 5 5 4 4 4 3 2 5 8 3 1 4 4 3 5 7 10 14 16 14 15 18 21 25 28
18 14 8 6 15 27 21 6 6 8 6 7 7 9 11 7 5 7 8 11 12 6 4 4 3 4 3 2 5 7 9 7 7 12 8 3 5 6 9 18 18 12 9 6 6 10 8 3 4 3 2 3 3 3 2 1 2 3 4 5 8 10 7 2 1 2 2 7 9 5 9 7 3 3 3 3 4 6 11 13 13 16 16 16 17 19 22 27
11 10 10 13 24 31 21 9 9 9 9 11 9 11 13 7 9 14 9 8 12 9 5 5 5 4 2 2 3 5 9 9 7 8 8 4 2 2 8 18 20 14 12 8 7 13 9 4 6 7 6 9 8 6 5 3 3 2 4 7 9 10 11 6 2 4 6 6 10 9 11 6 3 5 5 4 3 6 12 14 13 16 17 16 17 19 21 26
9 6 7 12 27 34 26 17 12 8 9 12 7 9 14 9 7 13 11 8 11 12 7 2 4 5 2 2 4 5 8 10 6 4 5 6 4 1 6 15 20 19 15 8 7 9 4 2 10 12 12 14 12 7 5 9 7 7 9 12 13 13 14 10 6 8 6 4 7 13 12 8 7 6 5 6 5 6 9 12 14 17 17 16 18 19 21 25
9 5 6 8 15 21 21 19 13 6 9 13 6 4 13 14 5 6 11 11 10 13 7 1 4 8 7 8 8 6 7 8 7 6 6 5 2 2 2 7 13 18 15 9 10 9 3 2 11 14 16 19 14 7 9 12 13 15 14 14 15 14 14 13 13 12 7 5 11 11 8 10 15 10 8 9 8 8 9 13 18 18 17 17 17 19 21 24
11 7 12 15 9 6 9 15 16 12 11 12 7 3 9 14 9 6 11 11 8 10 7 3 7 13 13 13 10 6 5 6 8 9 7 3 2 0 1 2 7 11 9 6 9 7 3 6 12 12 16 20 11 5 9 11 10 12 14 16 17 17 18 20 21 16 9 9 18 9 10 16 19 11 11 13 13 14 16 20 23 19 17 18 18 19 23 26
16 9 12 19 14 7 12 17 17 15 13 11 8 7 9 13 14 11 8 5 5 11 12 10 14 18 16 13 10 7 7 7 9 10 7 6 5 4 3 3 5 7 6 4 4 3 3 8 11 10 13 19 11 5 7 9 6 6 12 15 17 20 23 23 23 18 14 17 20 8 8 20 15 8 11 16 19 21 21 21 22 19 20 20 19 22 24 27
16 8 8 16 16 10 11 15 12 9 11 12 11 11 12 14 17 15 10 9 8 10 13 16 19 17 16 15 12 11 12 13 13 11 8 8 6 5 5 5 4 6 7 6 2 1 3 5 4 5 7 15 10 6 6 8 8 7 9 13 16 19 20 19 18 15 14 17 19 11 15 20 8 9 13 16 14 16 16 18 22 23 23 21 21 24 26 29
21 15 8 7 9 9 8 8 8 6 6 8 8 9 12 17 19 14 11 16 17 12 13 21 24 15 12 14 14 16 22 21 16 10 9 11 8 6 6 3 4 5 6 6 4 3 5 3 1 4 6 12 9 8 7 6 4 4 10 18 20 16 13 13 14 13 14 17 17 13 16 18 7 8 11 12 11 12 14 18 23 25 25 24 25 27 28 31
24 24 19 8 4 9 9 5 6 8 8 9 10 10 10 14 15 12 8 13 22 23 22 24 22 12 7 10 17 27 32 28 21 14 10 12 8 5 6 6 7 8 6 3 2 3 5 5 3 5 8 11 7 8 7 4 3 6 14 18 18 13 10 12 14 16 17 16 14 12 17 20 8 7 8 8 8 10 15 22 27 27 27 28 28 30 31 33
Wind_Direction
194 193 192 193 195 198 199 201 203 204 205 206 208 209 211 210 207 201 194 191 189 190 192 190 184 181 177 177 194 202 189 268 255 195 167 157 152 147 138 132 120 102 88 76 120 213 188 159 144 110 95 87 72 66 59 49 54 75 91 86 120 166 175 178 181 192 167 182 194 185 183 159 148 166 156 140 161 167 162 181 182 194 193 186 194 190 191 199
198 197 196 198 200 202 202 204 206 206 207 208 210 212 213 210 205 199 193 192 192 193 194 188 183 181 177 175 192 163 122 156 186 160 152 151 152 152 148 147 139 22 1 16 47 229 171 146 130 111 91 84 63 59 70 42 48 74 99 96 178 200 193 201 188 189 174 166 173 173 185 175 169 168 162 166 172 163 163 176 175 185 186 187 195 190 193 203
201 201 201 201 203 204 204 206 207 208 210 211 213 212 211 207 201 196 193 194 194 195 193 185 183 181 175 175 183 148 128 125 143 144 145 151 156 162 168 196 258 297 309 315 192 171 157 141 122 102 82 80 59 60 65 37 39 65 89 95 224 211 200 254 188 188 200 173 157 150 178 184 182 170 171 188 180 191 216 200 189 199 200 194 191 193 196 203
204 203 204 204 206 207 206 209 209 211 213 213 212 209 207 202 197 196 195 196 197 196 189 183 182 179 176 174 170 166 153 136 150 144 143 151 158 176 199 240 272 295 288 229 187 153 143 127 118 105 82 74 49 58 46 25 34 56 94 142 201 176 146 189 176 183 189 168 157 148 155 181 188 182 191 173 155 248 241 222 222 226 217 204 196 197 198 201
205 205 204 205 207 209 209 211 213 214 214 212 208 204 201 197 196 196 196 198 197 193 186 184 183 179 179 175 170 172 151 113 167 155 144 155 164 189 195 185 339 39 144 154 181 152 135 120 117 103 78 58 33 52 28 20 61 67 26 197 162 146 130 167 159 156 165 165 163 155 154 187 190 196 210 185 180 242 247 244 240 240 233 215 205 200 199 201
205 205 205 207 208 210 211 212 213 213 211 208 204 200 198 197 198 197 197 197 194 190 187 185 183 180 181 182 184 185 173 102 172 162 146 160 169 168 137 86 77 84 127 150 181 153 128 128 128 98 68 54 30 56 36 17 60 96 1 105 158 167 173 168 163 157 168 175 176 175 185 193 184 211 228 208 218 238 258 271 245 234 227 211 209 205 203 205
204 205 206 208 208 208 208 207 207 207 205 202 200 199 198 197 197 196 195 193 191 188 187 187 184 184 184 189 201 205 221 244 178 171 158 158 169 157 124 88 85 81 119 151 176 152 120 126 125 101 81 75 49 64 41 31 72 106 111 122 164 206 210 174 172 173 185 199 201 199 199 193 186 208 234 222 233 243 254 264 237 222 211 202 205 206 207 208
200 202 203 202 202 201 200 200 200 200 200 200 200 199 197 196 195 194 193 191 190 189 189 188 186 188 187 199 215 223 238 231 186 184 180 169 171 159 132 103 98 77 93 136 141 141 121 114 113 103 92 87 102 102 44 46 55 74 140 189 163 198 202 183 187 193 200 209 204 197 195 199 199 212 246 238 239 240 237 237 221 211 205 202 205 207 211 212
194 195 195 195 195 194 194 195 195 196 198 198 197 196 195 194 193 193 193 192 191 192 191 189 191 193 195 209 219 234 237 213 193 193 192 189 180 164 151 125 110 93 99 131 119 124 126 113 106 106 128 126 111 84 55 70 7 58 141 172 171 181 195 197 210 210 207 205 190 191 211 218 209 225 261 248 237 229 218 212 209 208 208 210 213 216 219 218
191 190 189 190 190 190 190 190 190 192 193 194 194 193 193 193 193 193 193 193 193 195 194 194 197 198 206 216 210 226 231 203 197 198 198 200 188 175 166 144 122 113 128 155 115 95 111 111 107 113 116 117 106 67 44 73 124 112 112 181 241 240 239 228 227 222 214 215 206 204 228 233 195 199 250 236 222 218 211 206 206 210 215 221 227 228 228 224
190 189 187 188 188 187 188 188 189 189 190 191 191 192 194 193 193 193 194 196 197 198 199 202 204 207 217 218 207 213 230 205 199 200 203 204 193 185 179 165 138 132 145 149 135 113 108 108 117 125 112 114 106 64 60 80 98 74 23 306 292 306 273 244 233 226 211 221 225 211 228 278 163 190 240 221 211 215 212 210 211 213 221 227 232 234 233 228
190 189 187 187 188 187 187 188 189 189 190 189 191 193 195 196 197 197 199 201 203 204 207 210 212 216 222 228 227 231 247 215 202 200 204 206 197 192 188 185 163 149 152 136 142 138 121 112 113 120 129 140 133 68 93 86 61 50 39 328 305 350 330 246 244 225 199 218 228 194 262 292 211 218 233 210 204 208 208 213 215 216 221 226 230 233 230 227
190 190 188 189 190 191 190 190 191 192 191 190 193 195 197 201 202 203 206 208 211 213 215 219 221 224 226 236 239 233 232 215 199 199 204 207 203 198 198 199 193 174 162 157 160 154 141 130 110 121 130 137 135 116 124 72 50 45 57 49 325 357 352 266 291 205 186 210 190 157 257 279 254 237 217 199 201 200 203 212 216 217 220 223 226 228 227 226
194 194 193 192 193 195 195 195 196 195 195 196 198 200 203 205 207 211 213 215 218 220 221 223 224 225 228 239 244 230 221 211 199 200 205 208 205 203 210 213 206 194 180 175 170 171 170 146 136 131 124 119 124 128 92 25 42 17 18 38 15 358 281 296 344 162 164 218 181 142 214 266 270 258 217 204 204 202 206 211 215 219 220 223 223 224 226 227
200 200 199 198 197 197 198 199 199 198 200 202 203 205 207 207 211 214 217 219 220 222 222 223 222 222 232 243 240 228 219 213 208 204 205 207 206 209 220 222 215 205 195 190 180 183 188 165 143 116 109 115 120 111 28 3 16 29 11 307 347 152 267 310 219 166 156 198 175 134 220 265 275 273 227 205 204 206 212 214 216 220 221 223 224 224 227 228
207 206 206 204 202 202 202 200 200 200 200 202 204 207 210 211 214 215 219 221 220 222 220 220 219 215 236 249 236 231 221 214 212 208 206 206 208 214 225 227 218 209 203 200 193 187 184 164 123 100 108 123 110 84 46 13 348 1 56 248 274 178 278 322 262 202 173 128 179 176 227 265 286 293 211 198 203 208 214 220 220 222 225 225 226 227 227 229
214 212 212 210 208 207 205 203 202 201 201 203 206 210 213 214 217 220 221 220 219 219 213 212 214 218 245 248 236 235 225 216 213 211 208 209 214 219 222 219 211 209 204 195 187 173 172 156 130 116 76 71 89 89 64 343 305 314 8 249 241 203 227 300 312 253 162 116 209 220 224 252 267 290 202 199 206 209 215 225 226 224 225 226 227 228 228 230
220 219 219 217 215 212 209 207 205 204 205 207 210 215 218 221 223 222 221 219 210 198 206 205 182 198 250 236 227 230 226 217 213 212 210 210 216 219 209 208 213 202 180 167 171 160 155 128 114 102 25 23 52 100 129 224 206 201 187 193 254 245 221 252 288 233 154 110 219 196 241 259 266 275 249 220 211 213 222 229 231 229 227 227 227 228 230 231
225 225 225 224 222 219 216 213 210 210 210 210 215 219 222 223 223 223 220 212 195 171 196 209 189 163 236 224 220 225 224 212 207 207 208 208 211 209 196 192 197 181 155 143 160 152 142 97 85 84 247 218 198 164 187 203 165 161 175 153 174 214 253 239 254 252 180 164 226 212 228 248 258 267 259 240 220 220 230 235 235 234 230 228 228 229 230 232
228 229 229 229 228 226 224 220 217 216 214 216 218 216 211 194 182 224 217 212 212 209 218 218 204 202 209 209 212 214 208 200 201 201 201 204 203 196 184 176 171 163 150 154 169 155 127 114 156 213 214 200 202 195 183 163 128 113 129 138 174 195 269 257 258 293 193 168 243 229 228 248 253 258 262 253 229 224 233 236 236 235 231 229 228 229 230 231
232 231 230 231 231 231 229 226 224 221 220 221 218 212 200 187 180 227 213 218 229 225 228 233 216 212 221 229 209 205 195 187 195 198 197 198 192 184 179 169 150 152 217 142 123 122 113 142 219 227 212 191 197 189 147 115 105 91 120 171 246 205 255 255 244 307 7 169 261 265 252 259 256 257 264 257 221 228 233 231 235 235 232 232 230 230 230 229
234 234 233 232 232 233 233 231 229 227 226 224 220 216 211 210 215 226 222 237 246 236 233 234 228 220 220 223 212 201 191 178 189 195 193 187 184 185 177 161 144 166 190 112 103 76 97 218 238 229 162 126 119 142 139 129 112 95 115 147 261 243 268 276 279 321 19 176 269 308 290 265 260 260 262 250 231 239 242 237 240 239 232 232 231 229 228 224
231 233 234 233 233 233 234 233 231 229 228 227 225 220 218 224 226 231 249 287 274 251 238 234 233 227 217 216 212 200 194 187 188 191 190 184 183 187 177 158 146 143 150 168 156 146 171 245 246 202 145 124 83 94 121 117 130 163 145 150 235 250 260 276 291 322 12 192 271 310 295 272 265 261 259 252 242 248 253 248 248 244 238 238 236 233 229 224
227 228 230 232 232 232 232 233 230 229 229 228 230 225 223 229 230 238 251 280 287 257 243 239 235 230 223 219 217 206 202 206 198 191 190 185 178 180 183 168 137 128 182 196 177 178 215 254 227 148 151 146 121 108 128 143 240 242 190 181 212 223 217 233 288 325 344 354 16 351 305 280 261 255 259 263 253 255 256 251 250 245 240 241 240 235 231 227
221 223 227 227 229 229 229 229 227 226 227 227 229 225 223 227 227 239 245 291 295 259 247 237 231 234 227 221 218 205 204 218 215 201 194 191 182 170 175 175 153 174 205 190 172 223 249 246 135 118 132 144 138 155 176 172 207 277 227 202 212 213 220 237 340 6 353 328 347 25 312 283 287 263 260 282 304 264 257 247 247 245 239 235 234 232 229 226
214 218 221 223 225 223 220 223 223 222 223 224 224 217 217 216 208 210 165 39 293 241 204 209 215 228 218 211 201 185 203 235 218 207 197 195 193 176 156 167 158 196 192 162 166 241 244 216 134 121 136 148 155 203 217 177 153 277 249 209 208 195 194 208 136 63 275 263 300 52 182 277 295 256 250 275 292 275 271 254 248 246 237 231 230 230 227 223
211 214 216 219 219 215 211 213 218 216 212 216 214 204 204 196 179 181 135 22 280 193 153 181 188 192 200 196 185 174 192 201 188 201 196 193 195 186 175 173 150 195 168 137 221 245 183 175 125 119 125 133 161 217 221 163 140 241 260 176 173 170 181 187 149 171 234 255 315 28 122 270 286 257 253 294 300 286 278 265 251 240 235 230 226 227 226 224
211 210 212 216 216 213 208 211 217 211 203 205 199 188 183 175 169 155 123 336 256 149 149 177 170 177 182 180 181 175 137 145 151 194 192 189 192 188 198 196 173 184 173 153 215 255 154 175 185 164 146 165 190 213 183 152 148 250 225 119 135 150 154 131 116 150 347 359 299 289 134 249 275 265 300 347 281 266 266 264 256 238 235 229 223 224 225 224
213 211 211 211 213 209 204 210 212 202 200 193 179 174 166 163 161 123 92 236 196 122 148 160 154 166 157 162 180 174 136 142 134 178 180 185 190 186 207 204 179 165 186 189 210 240 126 186 193 167 163 199 199 214 172 163 174 192 134 92 81 77 80 80 91 99 43 328 247 209 169 230 274 258 254 23 244 246 258 267 270 254 244 233 224 222 222 220
215 215 211 208 209 204 203 210 202 188 189 177 168 167 160 155 146 110 155 228 201 126 129 150 161 163 150 151 183 176 137 127 111 150 166 181 187 181 114 170 157 126 195 301 248 239 326 92 171 165 177 177 132 74 112 151 145 140 111 67 55 34 39 50 44 73 45 281 240 200 187 199 268 275 205 204 223 229 248 279 286 270 249 235 227 222 219 217
217 216 211 212 214 208 207 208 196 186 180 170 165 161 156 146 102 148 197 226 312 142 120 141 168 156 156 157 176 180 135 74 135 149 156 166 175 175 114 142 129 94 333 296 281 311 335 71 225 203 169 132 103 68 37 79 127 123 89 79 73 349 12 23 357 49 155 256 249 231 196 189 235 261 242 244 254 236 228 251 266 261 251 239 228 223 219 215
213 215 215 218 219 214 213 209 192 184 176 167 165 160 153 131 50 213 212 66 303 199 154 170 192 161 166 163 167 171 137 123 165 162 156 146 167 189 187 182 163 122 252 241 244 336 286 235 279 330 181 160 122 78 42 30 75 97 99 114 105 327 5 357 310 59 236 249 256 260 174 208 238 250 258 261 263 245 228 233 246 258 264 255 234 224 218 213
214 216 219 220 221 219 216 209 190 182 173 166 166 161 147 160 205 216 216 188 219 221 135 135 149 155 159 158 174 167 132 166 179 169 163 146 171 208 225 222 172 140 195 195 169 203 266 294 303 85 241 196 167 151 157 202 171 153 145 142 145 140 94 287 267 265 268 264 287 265 187 244 265 257 242 244 250 251 248 251 256 261 263 260 246 228 219 212
224 220 222 222 224 224 220 208 191 185 176 167 163 154 154 196 209 209 211 212 238 23 72 103 107 137 159 169 197 168 147 215 177 152 155 146 166 212 229 232 206 135 102 149 164 182 217 284 208 178 208 187 183 186 163 139 155 182 156 137 154 157 165 218 218 219 257 280 301 292 195 202 210 257 248 247 267 269 266 268 267 266 260 255 241 224 216 212
234 227 225 224 222 221 218 205 192 188 177 165 158 169 181 198 219 213 209 202 144 41 29 78 102 130 190 266 264 186 168 224 176 139 160 173 185 201 198 209 202 168 137 178 211 169 201 263 241 229 152 165 179 185 123 109 135 226 109 115 175 184 162 179 194 179 185 304 296 233 224 219 208 274 274 270 287 275 265 268 267 265 257 237 223 216 212 211
236 227 224 226 223 219 215 202 189 186 176 162 154 201 197 208 212 200 195 157 154 138 101 80 90 134 200 232 259 218 209 91 157 153 194 203 227 208 200 212 197 185 181 178 182 151 173 270 292 356 28 150 169 162 125 132 172 154 137 171 205 175 133 125 254 45 86 268 270 199 243 289 310 281 270 252 275 278 270 263 254 251 241 218 215 213 211 210
231 219 214 220 223 222 215 201 187 183 176 166 173 194 203 223 191 148 181 140 142 143 134 167 186 159 187 195 208 206 193 97 157 176 194 192 252 213 205 233 197 192 199 180 185 199 161 254 309 53 174 291 36 104 75 50 117 125 185 199 154 70 88 110 241 348 47 251 271 219 239 273 263 269 301 74 251 266 263 252 244 238 221 213 215 212 211 212
230 217 211 218 221 220 215 202 187 181 174 168 200 203 209 222 191 122 142 133 133 145 161 203 193 165 180 189 200 188 177 176 175 187 186 185 244 207 183 209 204 198 203 190 214 234 145 223 303 36 187 297 21 107 80 14 64 116 176 176 119 130 197 117 170 231 192 247 281 279 248 242 209 222 252 170 211 240 251 239 228 234 219 213 215 212 210 211
230 216 214 222 221 219 216 202 186 180 172 169 207 213 220 219 213 194 156 126 147 162 187 208 186 155 180 178 170 170 185 189 170 179 188 186 233 206 177 191 204 196 194 183 190 224 139 199 264 331 300 324 15 159 181 203 18 49 97 131 95 132 175 163 161 169 168 223 275 295 284 250 221 203 190 200 208 218 235 231 225 235 226 217 216 212 210 211
226 212 223 227 221 222 217 198 187 184 176 184 201 205 208 214 221 223 219 207 139 177 205 208 172 163 181 177 159 170 192 191 171 185 205 192 213 236 190 184 166 172 182 183 193 181 115 199 238 314 327 213 196 213 192 182 178 158 152 167 179 118 106 163 197 132 136 170 222 277 284 266 240 196 192 204 211 206 212 228 240 243 235 226 222 218 215 215
222 231 259 231 223 220 207 190 187 196 182 190 209 210 206 207 214 219 222 223 224 252 193 183 184 177 165 171 192 188 176 177 182 194 226 208 209 242 203 183 162 143 155 179 205 197 162 185 183 188 234 209 224 247 212 196 189 180 188 192 185 166 134 160 235 214 137 179 189 192 268 266 245 205 204 201 215 217 204 226 254 257 246 237 230 223 220 219
214 236 254 235 231 207 193 183 191 205 196 202 211 209 205 212 201 207 216 220 227 253 229 207 200 186 174 180 186 169 161 176 192 195 226 223 213 225 203 188 173 158 151 171 206 190 147 117 142 189 215 217 243 271 238 213 174 136 207 199 171 173 161 168 214 215 156 215 179 125 268 274 271 227 239 218 224 250 229 224 247 258 257 250 241 229 223 223
209 223 226 223 223 198 185 184 202 198 217 228 210 214 214 218 201 187 201 210 214 205 199 222 202 190 207 186 163 166 177 187 194 200 219 231 222 230 207 189 174 160 158 175 199 161 123 120 180 229 305 296 305 327 345 176 127 127 242 173 171 204 198 179 199 180 166 203 168 125 254 266 289 251 248 262 275 279 261 238 244 257 260 255 248 234 225 223
211 220 212 207 213 198 186 183 190 197 228 212 198 216 219 228 227 198 191 200 202 187 179 208 203 203 218 158 157 182 189 192 203 207 211 214 219 227 205 189 178 169 181 190 172 168 167 183 185 178 311 312 319 319 285 222 167 199 229 197 195 202 184 147 91 119 220 208 165 182 240 241 271 289 283 314 330 299 272 255 249 256 259 255 249 239 228 225
204 218 213 203 202 200 199 198 183 192 212 204 202 207 208 226 226 213 207 198 203 202 197 209 199 192 199 156 175 199 199 209 221 207 207 226 236 226 200 191 185 189 208 211 178 170 172 182 177 181 221 229 232 237 215 175 161 211 220 199 202 198 183 184 186 190 231 202 163 204 238 236 291 305 303 309 318 294 275 262 250 250 255 255 250 241 232 226
185 203 207 192 196 201 213 219 199 187 200 202 209 207 206 218 217 208 208 207 214 210 205 213 181 177 182 178 199 217 215 227 236 186 197 219 222 243 204 196 194 200 212 217 176 163 156 205 195 197 215 224 234 236 161 131 153 205 211 196 199 202 194 194 212 216 207 158 197 225 231 244 267 265 268 272 253 249 262 259 249 246 248 252 251 244 235 230
183 192 187 180 196 204 214 217 206 195 198 196 192 185 203 214 211 190 202 210 215 207 206 288 178 188 200 196 206 220 208 217 225 206 206 207 211 307 233 203 208 211 214 207 177 162 114 231 214 214 222 229 236 219 162 154 176 200 202 199 202 201 195 197 215 217 160 148 241 229 188 236 248 225 226 250 242 236 243 246 248 248 248 250 250 243 235 230
198 211 198 189 193 203 209 206 198 201 205 197 196 189 200 211 211 192 202 210 204 193 195 245 217 211 211 201 207 222 195 200 223 218 215 196 141 327 234 233 228 216 210 198 183 170 148 215 222 221 230 238 235 172 175 182 184 194 197 200 201 196 196 204 217 215 164 198 243 215 157 228 241 213 214 230 228 230 232 238 246 249 248 246 242 238 234 229
204 222 207 196 203 215 213 203 192 200 206 190 198 217 206 208 213 210 200 182 189 199 196 213 222 217 214 207 203 209 196 195 218 219 205 192 180 166 187 237 225 198 177 174 201 187 168 220 225 208 230 247 237 161 185 190 174 197 206 206 204 201 202 207 214 215 202 224 244 230 217 246 238 186 213 229 231 236 235 237 242 242 240 238 232 233 234 230
212 214 191 196 214 222 211 202 189 198 208 191 197 212 207 209 214 213 200 175 184 201 197 217 229 216 208 211 207 218 221 210 219 220 186 183 202 192 198 212 185 171 173 175 201 185 175 228 236 167 223 252 236 173 186 191 182 203 219 221 216 209 208 211 215 217 215 234 246 246 257 261 225 169 219 231 226 230 228 228 232 235 236 231 226 231 235 233
234 235 223 196 215 212 196 191 182 192 214 201 201 202 205 216 215 208 205 199 200 198 189 213 229 221 208 213 209 225 231 222 225 230 192 192 207 196 199 197 121 142 182 180 155 150 178 212 66 117 216 247 224 177 185 189 178 224 245 236 221 206 204 209 213 211 206 224 239 238 251 256 216 167 214 219 206 210 213 218 225 230 231 227 226 231 235 237
241 244 247 245 227 209 197 177 175 195 211 209 209 205 207 220 213 201 208 213 214 215 207 211 223 219 203 210 213 226 233 231 237 248 224 210 209 180 183 180 150 152 164 162 137 149 175 190 171 160 213 243 222 171 167 141 133 245 251 234 211 193 198 206 215 217 208 212 223 223 238 248 229 164 199 211 203 208 214 221 225 226 225 225 229 235 240 244